This is the latest recevied weather packets stored in our database for station/object VU2IB-13. If no packets are shown the sender has not sent any weather packets the latest 1 day(s).
| Time | Temp. | Humidity | Pressure | Rain* | Wind** | Luminosity | Snow |
|---|---|---|---|---|---|---|---|
| 1778066928 | 33.33° C | 35% | 1002.7 hPa | - | - | - | - |
| 1778066865 | 33.33° C | 35% | 1002.8 hPa | - | - | - | - |
| 1778066804 | 33.33° C | 35% | 1002.7 hPa | - | - | - | - |
| 1778066743 | 33.89° C | 35% | 1002.7 hPa | - | - | - | - |
| 1778066375 | 33.89° C | 35% | 1002.9 hPa | - | - | - | - |
| 1778066314 | 33.89° C | 35% | 1002.8 hPa | - | - | - | - |
| 1778066253 | 33.89° C | 33% | 1002.8 hPa | - | - | - | - |
| 1778066192 | 33.89° C | 35% | 1002.8 hPa | - | - | - | - |
| 1778066069 | 33.89° C | 37% | 1002.8 hPa | - | - | - | - |
| 1778066008 | 33.89° C | 36% | 1002.9 hPa | - | - | - | - |
| 1778065946 | 33.89° C | 36% | 1002.9 hPa | - | - | - | - |
| 1778065885 | 33.89° C | 36% | 1002.9 hPa | - | - | - | - |
| 1778065822 | 33.89° C | 36% | 1002.9 hPa | - | - | - | - |
| 1778065761 | 33.89° C | 35% | 1002.9 hPa | - | - | - | - |
| 1778065577 | 33.89° C | 32% | 1003 hPa | - | - | - | - |
| 1778065516 | 33.89° C | 32% | 1003.1 hPa | - | - | - | - |
| 1778065454 | 33.89° C | 32% | 1003.1 hPa | - | - | - | - |
| 1778065332 | 33.89° C | 33% | 1003.1 hPa | - | - | - | - |
| 1778064841 | 33.89° C | 31% | 1003.2 hPa | - | - | - | - |
| 1778064654 | 34.44° C | 31% | 1003.2 hPa | - | - | - | - |
| 1778064468 | 34.44° C | 31% | 1003.2 hPa | - | - | - | - |
| 1778064274 | 34.44° C | 31% | 1003.3 hPa | - | - | - | - |
| 1778064213 | 34.44° C | 31% | 1003.3 hPa | - | - | - | - |
| 1778063657 | 34.44° C | 31% | 1003.4 hPa | - | - | - | - |
| 1778063596 | 34.44° C | 31% | 1003.4 hPa | - | - | - | - |
* Rain since midnight (hover to see other rain measurements)
** Current wind speed in m/s (hover to see current wind gust speed)